,,,PA_Meas_PMT16A,,PR_Meas_QMR101_102,,RH_Meas_QMH101,,SR_Meas_QMS101,,TA_Meas_QMH101,,GenWind,,GenWind,
date,time,status,PA,status,PR,status,RH,status,SR,status,TA,status,DirAvg,status,SpdAvg,
2009-02-08, 00:00:04,VALID,1010.15,VALID,0,VALID,90.8609,VALID,0,VALID,23.1272,VALID,299,VALID,0.620703,
2009-02-08, 00:01:04,VALID,1010.14,VALID,0,VALID,90.777,VALID,0,VALID,23.1679,VALID,312,VALID,0.642578,
2009-02-08, 00:02:04,VALID,1010.14,VALID,0,VALID,90.655,VALID,0,VALID,23.1874,VALID,305,VALID,0.374609,
2009-02-08, 00:03:04,VALID,1010.14,VALID,0,VALID,90.5482,VALID,0,VALID,23.2069,VALID,307,VALID,0.000390625,
2009-02-08, 00:04:04,VALID,1010.12,VALID,0,VALID,90.4491,VALID,0,VALID,23.1874,VALID,307,VALID,0.126172,
2009-02-08, 00:05:04,VALID,1010.11,VALID,0,VALID,90.3652,VALID,0,VALID,23.1874,VALID,310,VALID,0.142578,
2009-02-08, 00:06:04,VALID,1010.11,VALID,0,VALID,90.3804,VALID,0,VALID,23.1892,VALID,321,VALID,0,
2009-02-08, 00:07:04,VALID,1010.09,VALID,0,VALID,90.4262,VALID,0,VALID,23.1485,VALID,321,VALID,0,
2009-02-08, 00:08:04,VALID,1010.09,VALID,0,VALID,90.3728,VALID,0,VALID,23.129,VALID,302,VALID,0.164844,
2009-02-08, 00:09:04,VALID,1010.06,VALID,0,VALID,90.3957,VALID,0,VALID,23.129,VALID,339,VALID,0.0351563,
2009-02-08, 00:10:04,VALID,1010.07,VALID,0,VALID,90.4414,VALID,0,VALID,23.09,VALID,339,VALID,0.136328,
2009-02-08, 00:11:04,VALID,1010.05,VALID,0,VALID,90.4872,VALID,0,VALID,23.0511,VALID,300,VALID,0.340234,
2009-02-08, 00:12:04,VALID,1010.02,VALID,0,VALID,90.6016,VALID,0,VALID,23.0316,VALID,302,VALID,0.316797,
2009-02-08, 00:13:04,VALID,1009.99,VALID,0,VALID,90.6855,VALID,0,VALID,23.0121,VALID,302,VALID,0.00742187,
2009-02-08, 00:14:04,VALID,1009.97,VALID,0,VALID,90.7998,VALID,0,VALID,22.9926,VALID,302,VALID,0,
2009-02-08, 00:15:04,VALID,1009.97,VALID,0,VALID,90.8761,VALID,0,VALID,22.9731,VALID,335,VALID,0.376172,
2009-02-08, 00:16:04,VALID,1009.91,VALID,0,VALID,90.9447,VALID,0,VALID,22.9731,VALID,340,VALID,0.279687,
2009-02-08, 00:17:04,VALID,1009.92,VALID,0,VALID,90.9829,VALID,0,VALID,22.9536,VALID,340,VALID,0.171875,
2009-02-08, 00:18:04,VALID,1009.88,VALID,0,VALID,91.0362,VALID,0,VALID,22.9342,VALID,340,VALID,0,
2009-02-08, 00:19:04,VALID,1009.89,VALID,0,VALID,91.0439,VALID,0,VALID,22.9342,VALID,340,VALID,0.00390625,
2009-02-08, 00:20:04,VALID,1009.84,VALID,0,VALID,91.0667,VALID,0,VALID,22.9147,VALID,340,VALID,0,
2009-02-08, 00:21:04,VALID,1009.82,VALID,0,VALID,91.0973,VALID,0,VALID,22.8935,VALID,301,VALID,0.101172,
2009-02-08, 00:22:04,VALID,1009.82,VALID,0,VALID,91.1354,VALID,0,VALID,22.9147,VALID,342,VALID,0,
2009-02-08, 00:23:04,VALID,1009.79,VALID,0,VALID,91.1735,VALID,0,VALID,22.8952,VALID,342,VALID,0,
2009-02-08, 00:24:04,VALID,1009.79,VALID,0,VALID,91.2421,VALID,0,VALID,22.8757,VALID,342,VALID,0,
2009-02-08, 00:25:04,VALID,1009.83,VALID,0,VALID,91.2879,VALID,0,VALID,22.8757,VALID,342,VALID,0,
2009-02-08, 00:26:04,VALID,1009.84,VALID,0,VALID,91.3489,VALID,0,VALID,22.8952,VALID,275,VALID,0.585547,
2009-02-08, 00:27:04,VALID,1009.83,VALID,0,VALID,91.4252,VALID,0,VALID,22.9147,VALID,275,VALID,0.0046875,
2009-02-08, 00:28:04,VALID,1009.84,VALID,0,VALID,91.3794,VALID,0,VALID,22.8952,VALID,275,VALID,0,
2009-02-08, 00:29:04,VALID,1009.83,VALID,0,VALID,91.3184,VALID,0,VALID,22.8757,VALID,275,VALID,0.0109375,
2009-02-08, 00:30:04,VALID,1009.78,VALID,0,VALID,91.265,VALID,0,VALID,22.8562,VALID,275,VALID,0,
2009-02-08, 00:31:04,VALID,1009.8,VALID,0,VALID,91.2726,VALID,0,VALID,22.8562,VALID,319,VALID,0.0917969,
2009-02-08, 00:32:04,VALID,1009.78,VALID,0,VALID,91.2726,VALID,0,VALID,22.8757,VALID,12,VALID,0.453906,
2009-02-08, 00:33:04,VALID,1009.74,VALID,0,VALID,91.2879,VALID,0,VALID,22.8562,VALID,22,VALID,0.48125,
2009-02-08, 00:34:04,VALID,1009.72,VALID,0,VALID,91.3108,VALID,0,VALID,22.8562,VALID,20,VALID,0.160547,
2009-02-08, 00:35:04,VALID,1009.68,VALID,0,VALID,91.2955,VALID,0,VALID,22.8562,VALID,1,VALID,0.355859,
2009-02-08, 00:36:04,VALID,1009.71,VALID,0,VALID,91.2803,VALID,0,VALID,22.8368,VALID,1,VALID,0.107031,
2009-02-08, 00:37:04,VALID,1009.67,VALID,0,VALID,91.3108,VALID,0,VALID,22.8368,VALID,323,VALID,0.419531,
2009-02-08, 00:38:04,VALID,1009.68,VALID,0,VALID,91.3184,VALID,0,VALID,22.8173,VALID,327,VALID,0.325,
2009-02-08, 00:39:04,VALID,1009.66,VALID,0,VALID,91.2726,VALID,0,VALID,22.7978,VALID,328,VALID,0.336328,
2009-02-08, 00:40:04,VALID,1009.68,VALID,0,VALID,91.3108,VALID,0,VALID,22.7978,VALID,350,VALID,0.588672,
2009-02-08, 00:41:04,VALID,1009.67,VALID,0,VALID,91.326,VALID,0,VALID,22.7978,VALID,347,VALID,0.351563,
2009-02-08, 00:42:04,VALID,1009.63,VALID,0,VALID,91.3718,VALID,0,VALID,22.7978,VALID,327,VALID,0.449609,
2009-02-08, 00:43:04,VALID,1009.63,VALID,0,VALID,91.3947,VALID,0,VALID,22.7978,VALID,292,VALID,0.623047,
2009-02-08, 00:44:04,VALID,1009.61,VALID,0,VALID,91.4023,VALID,0,VALID,22.8173,VALID,305,VALID,0.0308594,
2009-02-08, 00:45:04,VALID,1009.61,VALID,0,VALID,91.4175,VALID,0,VALID,22.8173,VALID,340,VALID,0.459766,
2009-02-08, 00:46:04,VALID,1009.62,VALID,0,VALID,91.3642,VALID,0,VALID,22.7978,VALID,13,VALID,0.285937,
2009-02-08, 00:47:04,VALID,1009.58,VALID,0,VALID,91.3336,VALID,0,VALID,22.7783,VALID,21,VALID,0.345703,
2009-02-08, 00:48:04,VALID,1009.58,VALID,0,VALID,91.3108,VALID,0,VALID,22.7995,VALID,5,VALID,0.432422,
2009-02-08, 00:49:04,VALID,1009.55,VALID,0,VALID,91.2955,VALID,0,VALID,22.7588,VALID,323,VALID,0.416797,
2009-02-08, 00:50:04,VALID,1009.54,VALID,0,VALID,91.3108,VALID,0,VALID,22.7588,VALID,8,VALID,0.334375,
2009-02-08, 00:51:04,VALID,1009.53,VALID,0,VALID,91.3489,VALID,0,VALID,22.7199,VALID,326,VALID,0.418359,
2009-02-08, 00:52:04,VALID,1009.53,VALID,0,VALID,91.3642,VALID,0,VALID,22.7394,VALID,6,VALID,0.595703,
2009-02-08, 00:53:04,VALID,1009.5,VALID,0,VALID,91.4099,VALID,0,VALID,22.7199,VALID,10,VALID,0.795703,
2009-02-08, 00:54:04,VALID,1009.48,VALID,0,VALID,91.4099,VALID,0,VALID,22.7199,VALID,355,VALID,0.464453,
2009-02-08, 00:55:04,VALID,1009.46,VALID,0,VALID,91.4328,VALID,0,VALID,22.6809,VALID,356,VALID,0.689453,
2009-02-08, 00:56:04,VALID,1009.43,VALID,0,VALID,91.4328,VALID,0,VALID,22.7004,VALID,340,VALID,0.985547,
2009-02-08, 00:57:04,VALID,1009.42,VALID,0,VALID,91.4633,VALID,0,VALID,22.6809,VALID,355,VALID,0.344531,
2009-02-08, 00:58:04,VALID,1009.39,VALID,0,VALID,91.4938,VALID,0,VALID,22.6809,VALID,316,VALID,0.467578,
2009-02-08, 00:59:04,VALID,1009.36,VALID,0,VALID,91.4862,VALID,0,VALID,22.6809,VALID,300,VALID,0.211719,
2009-02-08, 01:00:04,VALID,1009.33,VALID,0,VALID,91.5243,VALID,0,VALID,22.6809,VALID,330,VALID,0,
2009-02-08, 01:01:04,VALID,1009.31,VALID,0,VALID,91.5548,VALID,0.105969,VALID,22.6792,VALID,317,VALID,0.573828,
2009-02-08, 01:02:04,VALID,1009.29,VALID,0,VALID,91.5395,VALID,0,VALID,22.6987,VALID,323,VALID,0.732031,
2009-02-08, 01:03:04,VALID,1009.32,VALID,0,VALID,91.5014,VALID,0,VALID,22.6987,VALID,320,VALID,0.216797,
2009-02-08, 01:04:04,VALID,1009.32,VALID,0,VALID,91.448,VALID,0,VALID,22.6597,VALID,340,VALID,0,
2009-02-08, 01:05:04,VALID,1009.28,VALID,0,VALID,91.4175,VALID,0.105969,VALID,22.6792,VALID,4,VALID,0.690234,
2009-02-08, 01:06:04,VALID,1009.27,VALID,0,VALID,91.4328,VALID,0.105969,VALID,22.6402,VALID,352,VALID,0.3625,
2009-02-08, 01:07:04,VALID,1009.26,VALID,0,VALID,91.4099,VALID,0,VALID,22.6402,VALID,10,VALID,0.276563,
2009-02-08, 01:08:04,VALID,1009.26,VALID,0,VALID,91.4252,VALID,0.105969,VALID,22.6208,VALID,353,VALID,0,
2009-02-08, 01:09:04,VALID,1009.26,VALID,0,VALID,91.4557,VALID,0.105969,VALID,22.6208,VALID,352,VALID,0,
2009-02-08, 01:10:04,VALID,1009.26,VALID,0,VALID,91.4557,VALID,0.105969,VALID,22.5818,VALID,352,VALID,0,
2009-02-08, 01:11:04,VALID,1009.24,VALID,0,VALID,91.448,VALID,0,VALID,22.5429,VALID,352,VALID,0,
2009-02-08, 01:12:04,VALID,1009.26,VALID,0,VALID,91.5014,VALID,0.105969,VALID,22.5429,VALID,335,VALID,0,
2009-02-08, 01:13:04,VALID,1009.25,VALID,0,VALID,91.5548,VALID,0.105969,VALID,22.5217,VALID,356,VALID,0,
2009-02-08, 01:14:04,VALID,1009.24,VALID,0,VALID,91.6387,VALID,0.105969,VALID,22.5429,VALID,343,VALID,0,
2009-02-08, 01:15:04,VALID,1009.24,VALID,0,VALID,91.6311,VALID,0.105969,VALID,22.5039,VALID,344,VALID,0,
2009-02-08, 01:16:04,VALID,1009.23,VALID,0,VALID,91.6768,VALID,0,VALID,22.4844,VALID,344,VALID,0,
2009-02-08, 01:17:04,VALID,1009.22,VALID,0,VALID,91.6844,VALID,0,VALID,22.4844,VALID,339,VALID,0,
2009-02-08, 01:18:04,VALID,1009.24,VALID,0,VALID,91.7073,VALID,0,VALID,22.465,VALID,341,VALID,0,
2009-02-08, 01:19:04,VALID,1009.25,VALID,0,VALID,91.7226,VALID,0.105969,VALID,22.4455,VALID,341,VALID,0,
2009-02-08, 01:20:04,VALID,1009.3,VALID,0,VALID,91.7607,VALID,0.105969,VALID,22.4455,VALID,327,VALID,0,
2009-02-08, 01:21:04,VALID,1009.3,VALID,0,VALID,91.8064,VALID,0.105969,VALID,22.4455,VALID,322,VALID,0,
2009-02-08, 01:22:04,VALID,1009.33,VALID,0,VALID,91.8827,VALID,0.105969,VALID,22.465,VALID,296,VALID,0,
2009-02-08, 01:23:04,VALID,1009.37,VALID,0,VALID,91.8903,VALID,0.105969,VALID,22.465,VALID,296,VALID,0,
2009-02-08, 01:24:04,VALID,1009.36,VALID,0,VALID,91.9132,VALID,0.105969,VALID,22.4844,VALID,298,VALID,0,
2009-02-08, 01:25:04,VALID,1009.37,VALID,0,VALID,91.959,VALID,0,VALID,22.4844,VALID,299,VALID,0,
2009-02-08, 01:26:04,VALID,1009.35,VALID,0,VALID,91.9818,VALID,0.105969,VALID,22.4844,VALID,299,VALID,0,
2009-02-08, 01:27:04,VALID,1009.36,VALID,0,VALID,92.0047,VALID,0,VALID,22.4861,VALID,299,VALID,0,
2009-02-08, 01:28:04,VALID,1009.4,VALID,0,VALID,91.9971,VALID,0,VALID,22.5056,VALID,305,VALID,0,
2009-02-08, 01:29:04,VALID,1009.42,VALID,0,VALID,91.9818,VALID,0,VALID,22.5056,VALID,313,VALID,0,
2009-02-08, 01:30:04,VALID,1009.42,VALID,0,VALID,91.9513,VALID,0,VALID,22.4861,VALID,313,VALID,0,
2009-02-08, 01:31:04,VALID,1009.42,VALID,0,VALID,91.9208,VALID,0,VALID,22.4667,VALID,313,VALID,0,
2009-02-08, 01:32:04,VALID,1009.43,VALID,0,VALID,91.8903,VALID,0,VALID,22.4472,VALID,315,VALID,0,
2009-02-08, 01:33:04,VALID,1009.45,VALID,0,VALID,91.8903,VALID,0,VALID,22.4277,VALID,355,VALID,0.579297,
2009-02-08, 01:34:04,VALID,1009.44,VALID,0,VALID,91.9132,VALID,0,VALID,22.4667,VALID,358,VALID,0.0121094,
2009-02-08, 01:35:04,VALID,1009.42,VALID,0,VALID,91.9132,VALID,0,VALID,22.4472,VALID,339,VALID,0,
2009-02-08, 01:36:04,VALID,1009.44,VALID,0,VALID,91.9208,VALID,0,VALID,22.4277,VALID,309,VALID,0.630859,
2009-02-08, 01:37:04,VALID,1009.41,VALID,0,VALID,91.9742,VALID,0,VALID,22.4472,VALID,290,VALID,0.51875,
2009-02-08, 01:38:04,VALID,1009.42,VALID,0,VALID,92.0276,VALID,0,VALID,22.4667,VALID,290,VALID,0,
2009-02-08, 01:39:04,VALID,1009.41,VALID,0,VALID,92.0505,VALID,0,VALID,22.4861,VALID,288,VALID,0.375391,
2009-02-08, 01:40:04,VALID,1009.42,VALID,0,VALID,92.0428,VALID,0,VALID,22.5056,VALID,288,VALID,0,
2009-02-08, 01:41:04,VALID,1009.43,VALID,0,VALID,92.0428,VALID,0,VALID,22.5251,VALID,304,VALID,0.223047,
2009-02-08, 01:42:04,VALID,1009.43,VALID,0,VALID,92.0581,VALID,0,VALID,22.5446,VALID,281,VALID,0.43125,
2009-02-08, 01:43:04,VALID,1009.41,VALID,0,VALID,92.0657,VALID,0,VALID,22.564,VALID,277,VALID,0.284766,
2009-02-08, 01:44:04,VALID,1009.42,VALID,0,VALID,92.0352,VALID,0,VALID,22.564,VALID,277,VALID,0.236719,
2009-02-08, 01:45:04,VALID,1009.39,VALID,0,VALID,91.9818,VALID,0,VALID,22.5835,VALID,275,VALID,0.140625,
2009-02-08, 01:46:04,VALID,1009.39,VALID,0,VALID,91.9285,VALID,0,VALID,22.5835,VALID,279,VALID,0,
2009-02-08, 01:47:04,VALID,1009.37,VALID,0,VALID,91.837,VALID,0,VALID,22.5446,VALID,282,VALID,0,
2009-02-08, 01:48:04,VALID,1009.35,VALID,0,VALID,91.7683,VALID,0,VALID,22.5251,VALID,346,VALID,0,
2009-02-08, 01:49:04,VALID,1009.39,VALID,0,VALID,91.7454,VALID,0,VALID,22.5251,VALID,294,VALID,0,
2009-02-08, 01:50:04,VALID,1009.41,VALID,0,VALID,91.7302,VALID,0,VALID,22.5251,VALID,294,VALID,0,
2009-02-08, 01:51:04,VALID,1009.41,VALID,0,VALID,91.6921,VALID,0,VALID,22.5056,VALID,294,VALID,0,
2009-02-08, 01:52:04,VALID,1009.42,VALID,0,VALID,91.7149,VALID,0,VALID,22.4861,VALID,295,VALID,0,
2009-02-08, 01:53:04,VALID,1009.42,VALID,0,VALID,91.7302,VALID,0,VALID,22.4861,VALID,298,VALID,0,
2009-02-08, 01:54:04,VALID,1009.45,VALID,0,VALID,91.7454,VALID,0,VALID,22.4861,VALID,305,VALID,0,
2009-02-08, 01:55:04,VALID,1009.43,VALID,0,VALID,91.7531,VALID,0,VALID,22.4455,VALID,305,VALID,0,
2009-02-08, 01:56:04,VALID,1009.42,VALID,0,VALID,91.7607,VALID,0,VALID,22.426,VALID,316,VALID,0,
2009-02-08, 01:57:04,VALID,1009.45,VALID,0,VALID,91.7988,VALID,0,VALID,22.426,VALID,321,VALID,0,
2009-02-08, 01:58:04,VALID,1009.46,VALID,0,VALID,91.8293,VALID,0,VALID,22.4277,VALID,321,VALID,0,
2009-02-08, 01:59:04,VALID,1009.49,VALID,0,VALID,91.8217,VALID,0,VALID,22.4082,VALID,321,VALID,0,
2009-02-08, 02:00:04,VALID,1009.51,VALID,0,VALID,91.837,VALID,0,VALID,22.3887,VALID,321,VALID,0,
2009-02-08, 02:01:04,VALID,1009.53,VALID,0,VALID,91.8675,VALID,0,VALID,22.3676,VALID,321,VALID,0,
2009-02-08, 02:02:04,VALID,1009.53,VALID,0,VALID,91.8827,VALID,0,VALID,22.3887,VALID,321,VALID,0,
2009-02-08, 02:03:04,VALID,1009.57,VALID,0,VALID,91.9132,VALID,0,VALID,22.3676,VALID,321,VALID,0,
2009-02-08, 02:04:04,VALID,1009.6,VALID,0,VALID,91.9361,VALID,0,VALID,22.3286,VALID,321,VALID,0,
2009-02-08, 02:05:04,VALID,1009.64,VALID,0,VALID,91.9666,VALID,0,VALID,22.3303,VALID,321,VALID,0,
2009-02-08, 02:06:04,VALID,1009.64,VALID,0,VALID,91.9971,VALID,0,VALID,22.3498,VALID,321,VALID,0,
2009-02-08, 02:07:04,VALID,1009.66,VALID,0,VALID,92.0047,VALID,0,VALID,22.3091,VALID,321,VALID,0,
2009-02-08, 02:08:04,VALID,1009.64,VALID,0,VALID,92.0047,VALID,0,VALID,22.2914,VALID,321,VALID,0,
2009-02-08, 02:09:04,VALID,1009.59,VALID,0,VALID,92.0352,VALID,0,VALID,22.2702,VALID,321,VALID,0,
2009-02-08, 02:10:04,VALID,1009.58,VALID,0,VALID,92.0581,VALID,0,VALID,22.2914,VALID,321,VALID,0,
2009-02-08, 02:11:04,VALID,1009.51,VALID,0,VALID,92.0886,VALID,0,VALID,22.2702,VALID,321,VALID,0,
2009-02-08, 02:12:04,VALID,1009.49,VALID,0,VALID,92.1267,VALID,0,VALID,22.2719,VALID,321,VALID,0,
2009-02-08, 02:13:04,VALID,1009.46,VALID,0,VALID,92.1267,VALID,0,VALID,22.2524,VALID,321,VALID,0,
2009-02-08, 02:14:04,VALID,1009.44,VALID,0,VALID,92.1344,VALID,0,VALID,22.2329,VALID,321,VALID,0,
2009-02-08, 02:15:04,VALID,1009.45,VALID,0,VALID,92.1496,VALID,0,VALID,22.1923,VALID,321,VALID,0,
2009-02-08, 02:16:04,VALID,1009.41,VALID,0,VALID,92.1801,VALID,0,VALID,22.194,VALID,321,VALID,0,
2009-02-08, 02:17:04,VALID,1009.42,VALID,0,VALID,92.2335,VALID,0,VALID,22.194,VALID,321,VALID,0,
2009-02-08, 02:18:04,VALID,1009.37,VALID,0,VALID,92.2411,VALID,0,VALID,22.194,VALID,321,VALID,0,
2009-02-08, 02:19:04,VALID,1009.38,VALID,0,VALID,92.2792,VALID,0,VALID,22.1745,VALID,321,VALID,0,
2009-02-08, 02:20:04,VALID,1009.41,VALID,0,VALID,92.3021,VALID,0,VALID,22.155,VALID,321,VALID,0,
2009-02-08, 02:21:04,VALID,1009.4,VALID,0,VALID,92.3021,VALID,0,VALID,22.1355,VALID,321,VALID,0,
2009-02-08, 02:22:04,VALID,1009.4,VALID,0,VALID,92.3326,VALID,0,VALID,22.1161,VALID,321,VALID,0,
2009-02-08, 02:23:04,VALID,1009.42,VALID,0,VALID,92.3631,VALID,0,VALID,22.1355,VALID,321,VALID,0,
2009-02-08, 02:24:04,VALID,1009.43,VALID,0,VALID,92.3936,VALID,0,VALID,22.1355,VALID,321,VALID,0,
2009-02-08, 02:25:04,VALID,1009.46,VALID,0,VALID,92.4394,VALID,0,VALID,22.1355,VALID,321,VALID,0,
2009-02-08, 02:26:04,VALID,1009.47,VALID,0,VALID,92.4851,VALID,0,VALID,22.1745,VALID,321,VALID,0,
2009-02-08, 02:27:04,VALID,1009.45,VALID,0,VALID,92.5233,VALID,0,VALID,22.194,VALID,321,VALID,0,
2009-02-08, 02:28:04,VALID,1009.44,VALID,0,VALID,92.5385,VALID,0,VALID,22.194,VALID,321,VALID,0,
2009-02-08, 02:29:04,VALID,1009.42,VALID,0,VALID,92.5385,VALID,0,VALID,22.155,VALID,321,VALID,0,
2009-02-08, 02:30:04,VALID,1009.42,VALID,0,VALID,92.5538,VALID,0,VALID,22.1355,VALID,321,VALID,0,
2009-02-08, 02:31:04,VALID,1009.42,VALID,0,VALID,92.5385,VALID,0,VALID,22.0754,VALID,321,VALID,0,
2009-02-08, 02:32:04,VALID,1009.41,VALID,0,VALID,92.5156,VALID,0,VALID,22.0966,VALID,321,VALID,0,
2009-02-08, 02:33:04,VALID,1009.4,VALID,0,VALID,92.5156,VALID,0,VALID,22.0966,VALID,321,VALID,0,
2009-02-08, 02:34:04,VALID,1009.41,VALID,0,VALID,92.5156,VALID,0,VALID,22.0771,VALID,321,VALID,0,
2009-02-08, 02:35:04,VALID,1009.42,VALID,0,VALID,92.5233,VALID,0,VALID,22.0576,VALID,321,VALID,0,
2009-02-08, 02:36:04,VALID,1009.4,VALID,0,VALID,92.5538,VALID,0,VALID,22.0576,VALID,321,VALID,0,
2009-02-08, 02:37:04,VALID,1009.42,VALID,0,VALID,92.5461,VALID,0,VALID,22.0576,VALID,321,VALID,0,
2009-02-08, 02:38:04,VALID,1009.4,VALID,0,VALID,92.5385,VALID,0,VALID,22.0382,VALID,321,VALID,0,
2009-02-08, 02:39:04,VALID,1009.4,VALID,0,VALID,92.5538,VALID,0,VALID,21.9975,VALID,321,VALID,0,
2009-02-08, 02:40:04,VALID,1009.42,VALID,0,VALID,92.5538,VALID,0,VALID,22.0187,VALID,321,VALID,0,
2009-02-08, 02:41:04,VALID,1009.43,VALID,0,VALID,92.5766,VALID,0,VALID,21.9992,VALID,321,VALID,0,
2009-02-08, 02:42:04,VALID,1009.41,VALID,0,VALID,92.5614,VALID,0,VALID,21.9797,VALID,321,VALID,0,
2009-02-08, 02:43:04,VALID,1009.4,VALID,0,VALID,92.5843,VALID,0,VALID,21.9603,VALID,321,VALID,0,
2009-02-08, 02:44:04,VALID,1009.38,VALID,0,VALID,92.5919,VALID,0,VALID,21.9603,VALID,321,VALID,0,
2009-02-08, 02:45:04,VALID,1009.37,VALID,0,VALID,92.6224,VALID,0,VALID,21.9797,VALID,6,VALID,0.271484,
2009-02-08, 02:46:04,VALID,1009.34,VALID,0,VALID,92.6376,VALID,0,VALID,21.9992,VALID,26,VALID,0.404687,
2009-02-08, 02:47:04,VALID,1009.33,VALID,0,VALID,92.6224,VALID,0,VALID,21.9603,VALID,28,VALID,0.438672,
2009-02-08, 02:48:04,VALID,1009.31,VALID,0,VALID,92.6453,VALID,0,VALID,21.9603,VALID,49,VALID,0.487109,
2009-02-08, 02:49:04,VALID,1009.3,VALID,0,VALID,92.6682,VALID,0,VALID,21.9797,VALID,52,VALID,0.552734,
2009-02-08, 02:50:04,VALID,1009.3,VALID,0,VALID,92.6605,VALID,0,VALID,21.9391,VALID,53,VALID,0.398047,
2009-02-08, 02:51:04,VALID,1009.26,VALID,0,VALID,92.6682,VALID,0,VALID,21.9603,VALID,53,VALID,0.395703,
2009-02-08, 02:52:04,VALID,1009.28,VALID,0,VALID,92.691,VALID,0,VALID,21.9603,VALID,53,VALID,0.110547,
2009-02-08, 02:53:04,VALID,1009.26,VALID,0,VALID,92.7063,VALID,0,VALID,21.9408,VALID,53,VALID,0,
2009-02-08, 02:54:04,VALID,1009.25,VALID,0,VALID,92.7063,VALID,0,VALID,21.9213,VALID,53,VALID,0,
2009-02-08, 02:55:04,VALID,1009.23,VALID,0,VALID,92.7063,VALID,0,VALID,21.9002,VALID,53,VALID,0,
2009-02-08, 02:56:04,VALID,1009.24,VALID,0,VALID,92.7292,VALID,0,VALID,21.9408,VALID,53,VALID,0,
2009-02-08, 02:57:04,VALID,1009.25,VALID,0,VALID,92.7444,VALID,0,VALID,21.9196,VALID,53,VALID,0,
2009-02-08, 02:58:04,VALID,1009.24,VALID,0,VALID,92.752,VALID,0,VALID,21.9391,VALID,53,VALID,0,
2009-02-08, 02:59:04,VALID,1009.27,VALID,0,VALID,92.752,VALID,0,VALID,21.9196,VALID,53,VALID,0,
2009-02-08, 03:00:04,VALID,1009.28,VALID,0,VALID,92.7597,VALID,0,VALID,21.9002,VALID,53,VALID,0,
2009-02-08, 03:01:04,VALID,1009.3,VALID,0,VALID,92.7597,VALID,0.105969,VALID,21.8807,VALID,53,VALID,0,
2009-02-08, 03:02:04,VALID,1009.3,VALID,0,VALID,92.7673,VALID,0.105969,VALID,21.8612,VALID,53,VALID,0,
2009-02-08, 03:03:04,VALID,1009.32,VALID,0,VALID,92.7825,VALID,0.105969,VALID,21.8612,VALID,53,VALID,0,
2009-02-08, 03:04:04,VALID,1009.3,VALID,0,VALID,92.7825,VALID,0.105969,VALID,21.8418,VALID,53,VALID,0,
2009-02-08, 03:05:04,VALID,1009.31,VALID,0,VALID,92.8207,VALID,0,VALID,21.8807,VALID,349,VALID,0.0589844,
2009-02-08, 03:06:04,VALID,1009.33,VALID,0,VALID,92.8436,VALID,0.105969,VALID,21.9586,VALID,296,VALID,0,
2009-02-08, 03:07:04,VALID,1009.34,VALID,0,VALID,92.8436,VALID,0.105969,VALID,21.9781,VALID,296,VALID,0,
2009-02-08, 03:08:04,VALID,1009.37,VALID,0,VALID,92.8588,VALID,0,VALID,21.9975,VALID,296,VALID,0,
2009-02-08, 03:09:04,VALID,1009.38,VALID,0,VALID,92.8817,VALID,0.105969,VALID,21.9586,VALID,296,VALID,0,
2009-02-08, 03:10:04,VALID,1009.37,VALID,0,VALID,92.8969,VALID,0.105969,VALID,21.9781,VALID,296,VALID,0.182812,
2009-02-08, 03:11:04,VALID,1009.37,VALID,0,VALID,92.8741,VALID,0,VALID,21.9586,VALID,8,VALID,0,
2009-02-08, 03:12:04,VALID,1009.35,VALID,0,VALID,92.8969,VALID,0,VALID,21.9603,VALID,8,VALID,0,
2009-02-08, 03:13:04,VALID,1009.4,VALID,0,VALID,92.8969,VALID,0,VALID,21.9408,VALID,8,VALID,0,
2009-02-08, 03:14:04,VALID,1009.37,VALID,0,VALID,92.8893,VALID,0,VALID,21.9408,VALID,8,VALID,0,
2009-02-08, 03:15:04,VALID,1009.36,VALID,0,VALID,92.8893,VALID,0,VALID,21.9408,VALID,8,VALID,0,
2009-02-08, 03:16:04,VALID,1009.37,VALID,0,VALID,92.8817,VALID,0,VALID,21.9018,VALID,8,VALID,0,
2009-02-08, 03:17:04,VALID,1009.39,VALID,0,VALID,92.8893,VALID,0,VALID,21.8824,VALID,8,VALID,0,
2009-02-08, 03:18:04,VALID,1009.35,VALID,0,VALID,92.8664,VALID,0,VALID,21.8824,VALID,8,VALID,0,
2009-02-08, 03:19:04,VALID,1009.34,VALID,0,VALID,92.8817,VALID,0,VALID,21.884,VALID,8,VALID,0,
2009-02-08, 03:20:04,VALID,1009.32,VALID,0,VALID,92.8893,VALID,0,VALID,21.8629,VALID,8,VALID,0,
2009-02-08, 03:21:04,VALID,1009.34,VALID,0,VALID,92.9046,VALID,0,VALID,21.8434,VALID,8,VALID,0,
2009-02-08, 03:22:04,VALID,1009.33,VALID,0,VALID,92.8969,VALID,0,VALID,21.8434,VALID,8,VALID,0,
2009-02-08, 03:23:04,VALID,1009.32,VALID,0,VALID,92.9198,VALID,0,VALID,21.8239,VALID,8,VALID,0,
2009-02-08, 03:24:04,VALID,1009.34,VALID,0,VALID,92.8969,VALID,0,VALID,21.8239,VALID,8,VALID,0,
2009-02-08, 03:25:04,VALID,1009.33,VALID,0,VALID,92.8741,VALID,0,VALID,21.8045,VALID,8,VALID,0,
2009-02-08, 03:26:04,VALID,1009.33,VALID,0,VALID,92.9122,VALID,0,VALID,21.785,VALID,8,VALID,0,
2009-02-08, 03:27:04,VALID,1009.39,VALID,0,VALID,92.8969,VALID,0,VALID,21.8045,VALID,8,VALID,0,
2009-02-08, 03:28:04,VALID,1009.35,VALID,0,VALID,92.9198,VALID,0,VALID,21.8045,VALID,8,VALID,0,
2009-02-08, 03:29:04,VALID,1009.37,VALID,0,VALID,92.9198,VALID,0,VALID,21.8045,VALID,8,VALID,0,
2009-02-08, 03:30:04,VALID,1009.37,VALID,0,VALID,92.9274,VALID,0,VALID,21.8045,VALID,8,VALID,0,
2009-02-08, 03:31:04,VALID,1009.35,VALID,0,VALID,92.9503,VALID,0,VALID,21.8045,VALID,8,VALID,0,
2009-02-08, 03:32:04,VALID,1009.35,VALID,0,VALID,92.9503,VALID,0,VALID,21.8045,VALID,8,VALID,0,
2009-02-08, 03:33:04,VALID,1009.35,VALID,0,VALID,92.9884,VALID,0,VALID,21.8239,VALID,8,VALID,0,
2009-02-08, 03:34:04,VALID,1009.34,VALID,0,VALID,92.9732,VALID,0,VALID,21.8045,VALID,8,VALID,0,
2009-02-08, 03:35:04,VALID,1009.34,VALID,0,VALID,92.9884,VALID,0,VALID,21.8239,VALID,8,VALID,0,
2009-02-08, 03:36:04,VALID,1009.35,VALID,0,VALID,92.9961,VALID,0,VALID,21.8239,VALID,8,VALID,0,
2009-02-08, 03:37:04,VALID,1009.36,VALID,0,VALID,93.0189,VALID,0,VALID,21.8239,VALID,330,VALID,0,
2009-02-08, 03:38:04,VALID,1009.33,VALID,0,VALID,93.0342,VALID,0,VALID,21.8434,VALID,330,VALID,0,
2009-02-08, 03:39:04,VALID,1009.34,VALID,0,VALID,93.0342,VALID,0,VALID,21.8434,VALID,330,VALID,0,
2009-02-08, 03:40:04,VALID,1009.36,VALID,0,VALID,93.0266,VALID,0,VALID,21.8434,VALID,330,VALID,0,
2009-02-08, 03:41:04,VALID,1009.36,VALID,0,VALID,93.0189,VALID,0,VALID,21.8256,VALID,330,VALID,0,
2009-02-08, 03:42:04,VALID,1009.38,VALID,0,VALID,93.0113,VALID,0,VALID,21.7833,VALID,330,VALID,0,
2009-02-08, 03:43:04,VALID,1009.38,VALID,0,VALID,93.0342,VALID,0,VALID,21.7639,VALID,330,VALID,0,
2009-02-08, 03:44:04,VALID,1009.38,VALID,0,VALID,93.0342,VALID,0,VALID,21.7444,VALID,330,VALID,0,
2009-02-08, 03:45:04,VALID,1009.4,VALID,0,VALID,93.0266,VALID,0,VALID,21.7054,VALID,330,VALID,0,
2009-02-08, 03:46:04,VALID,1009.4,VALID,0,VALID,93.0418,VALID,0,VALID,21.7054,VALID,330,VALID,0,
2009-02-08, 03:47:04,VALID,1009.39,VALID,0,VALID,93.0113,VALID,0,VALID,21.686,VALID,330,VALID,0,
2009-02-08, 03:48:04,VALID,1009.42,VALID,0,VALID,93.0418,VALID,0,VALID,21.7054,VALID,330,VALID,0,
2009-02-08, 03:49:04,VALID,1009.44,VALID,0,VALID,93.0342,VALID,0,VALID,21.686,VALID,330,VALID,0,
2009-02-08, 03:50:04,VALID,1009.46,VALID,0,VALID,93.0418,VALID,0,VALID,21.686,VALID,330,VALID,0,
2009-02-08, 03:51:04,VALID,1009.49,VALID,0,VALID,93.0723,VALID,0,VALID,21.7266,VALID,330,VALID,0,
2009-02-08, 03:52:04,VALID,1009.49,VALID,0,VALID,93.0799,VALID,0,VALID,21.7249,VALID,330,VALID,0,
2009-02-08, 03:53:04,VALID,1009.52,VALID,0,VALID,93.0799,VALID,0,VALID,21.7249,VALID,330,VALID,0,